Weather Roundup
Issued by NWS

Home | Current Version | Previous Version | Text Only | Print | Product List | Glossary On
Versions: 1 2 3 4 5 6 7 8 9 10 11 12 13 14 15 16 17 18 19 20 21 22 23 24 25 26 27 28 29 30 31 32 33 34 35 36 37 38 39 40 41 42 43 44 45 46 47 48 49 50
000
NZUS93 KARX 250759
HRRWXR

CURRENT HOURLY OBSERVATIONS ACROSS
MUCH OF THE UPPER MISSISSIPPI VALLEY
NATIONAL WEATHER SERVICE LA CROSSE WI
300 AM CDT SAT MAR 25 2017


...SOUTHEAST MINNESOTA...


CITY           SKY/WX    TMP DP  RH WIND       PRES   REMARKS
ROCHESTER      CLOUDY    37  36  96 NE14      30.08F WCI  28
ROCHESTER/MAYO CLOUDY    38  37  95 NE7       30.11S WCI  32
WINONA         CLOUDY    37  36  93 E8        30.14S WCI  31
AUSTIN         CLOUDY    37  36  93 NE14G21   30.06F WCI  29
ALBERT LEA     CLOUDY    37  36  93 NE13G18   30.07S FOG     WCI  29
DODGE CENTER   CLOUDY    36  36 100 NE12G17   30.08F FOG     WCI  27
PRESTON        CLOUDY    36  34  93 NE9G17    30.07F WCI  29
OWATONNA       CLOUDY    37  34  87 NE13G18   30.10F WCI  29
FARIBAULT      CLOUDY    37  34  87 N10G17    30.12F WCI  30
$$

...ELSEWHERE IN MINNESOTA...


CITY           SKY/WX    TMP DP  RH WIND       PRES   REMARKS
MINNEAPOLIS    CLOUDY    38  31  76 NE12      30.17F WCI  30
INTNL FALLS    CLOUDY    33  27  78 E6        30.25R WCI  28
DULUTH         CLOUDY    33  31  92 E12       30.23F WCI  24
RED WING       CLOUDY    39  32  75 E7        30.15S WCI  34
REDWOOD FALLS  CLOUDY    37  31  78 NE9       30.15F WCI  30
MANKATO        CLOUDY    37  34  89 NE14      30.13S WCI  28
WORTHINGTON    CLOUDY    35  34  96 NE21      30.07F FOG     WCI  24
FAIRMONT       CLOUDY    38  35  89 NE15      30.08F WCI  29
$$

...SOUTHWEST WISCONSIN...


CITY           SKY/WX    TMP DP  RH WIND       PRES   REMARKS
LA CROSSE      CLOUDY    40  35  83 E14       30.12F WCI  32
PRAIRIE DU CHI CLOUDY    37  36  96 NE5       30.08F WCI  33
BOSCOBEL       CLOUDY    38  36  92 NE8G16    30.10S FOG     WCI  32
LONE ROCK      NOT AVBL
PLATTEVILLE    CLOUDY    38  38 100 NE15      30.05S WCI  29
FORT MC COY    CLOUDY    37  35  94 NE9       30.14F WCI  30
MAUSTON-NEW LI CLOUDY    36  35  94 E7        30.13F FOG     WCI  31
VIROQUA        CLOUDY    36  36 100 E15       30.08F WCI  26
WIS DELLS      CLOUDY    35  34  95 NE13      30.12S WCI  26
$$

...ELSEWHERE IN WISCONSIN...


CITY           SKY/WX    TMP DP  RH WIND       PRES   REMARKS
MILWAUKEE      LGT RAIN  38  34  85 NE16      30.09F WCI  29
MADISON        LGT RAIN  36  34  92 N12       30.09S FOG     WCI  28
GREEN BAY      CLOUDY    35  34  96 NE16      30.18F WCI  25
EAU CLAIRE     NOT AVBL
BLACK RVR FLS  CLOUDY    38  37  99 E7        30.15S FOG     WCI  32
MEDFORD        CLOUDY    33  31  92 NE13      30.15S WCI  24
WAUSAU         CLOUDY    33  31  92 E7G18     30.17R WCI  27
WIS RAPIDS     CLOUDY    35  33  92 E9        30.17S WCI  28
MARSHFIELD     CLOUDY    34  31  88 E10       30.15R WCI  26
RICE LAKE      CLOUDY    35  31  85 CALM      30.21F
$$

...NORTHEAST IOWA...


CITY           SKY/WX    TMP DP  RH WIND       PRES   REMARKS
WATERLOO       CLOUDY    39  37  92 NE16      30.00S WCI  30
DUBUQUE        CLOUDY    38  37  97 NE20G25   30.03R WCI  28
DECORAH        CLOUDY    37  36  93 E12G20    30.04F WCI  30
MASON CITY     CLOUDY    38  36  92 NE17      30.04F WCI  28
CHARLES CITY   CLOUDY    37  37 100 E17G29    30.02F WCI  28
OELWEIN        MIX PCPN  37  37 100 NE20      30.00S WCI  27
$$

...ELSEWHERE IN IOWA...


CITY           SKY/WX    TMP DP  RH WIND       PRES   REMARKS
DES MOINES     CLOUDY    44  41  89 NE13      29.91F
IOWA CITY      CLOUDY    47  44  90 NE13G21   29.96F FOG
FORT DODGE     CLOUDY    39  36  87 NE12      29.99S WCI  32
MARSHALLTOWN   CLOUDY    40  39  97 NE17      29.95F WCI  31
CEDAR RAPIDS   CLOUDY    42  42 100 NE18      29.95F FOG
$$

...NORTHERN ILLINOIS...


CITY           SKY/WX    TMP DP  RH WIND       PRES   REMARKS
CHICAGO-OHARE  CLOUDY    41  37  86 NE13      30.06F
CHICAGO-MIDWAY LGT RAIN  41  38  89 N10       30.06F
MOLINE         CLOUDY    44  41  89 NE17      29.97F
ROCKFORD       LGT RAIN  41  37  86 NE12      30.07R FOG
PEORIA         RAIN      50  49  96 E13       29.94F FOG
$$

NOTE: "FAIR" INDICATES FEW OR NO CLOUDS BELOW 12,000 FEET WITH NO
SIGNIFICANT WEATHER AND/OR OBSTRUCTIONS TO VISIBILITY. WIND
SPEEDS ARE IN MILES-PER-HOUR.




USA.gov is the U.S. government's official web portal to all federal, state and local government web resources and services.